Wind_Speed
55 56 57 58 58 59 60 61 62 62 63 63 63 63 64 66 67 68 69 70 72 74 77 79 79 80 82 84 86 89 89 90 90 90 90 90 90 92 93 94 94 94 95 95 95 94 94 94 94 94 94 94 95 95 96 97 98 99 100 100 101 101 102 102 103 104 104 105 105 106 106 107 107 108 108 109 109 110 111 111 111 111 112 113 114 114
55 56 57 57 57 58 58 59 59 60 60 60 61 62 63 64 67 69 70 71 73 76 79 81 82 83 85 88 90 93 94 94 95 96 97 97 97 97 98 98 99 100 100 100 99 98 97 96 95 94 93 92 92 92 93 93 94 95 96 97 98 99 100 101 101 102 103 104 105 105 106 107 107 107 108 108 108 109 109 110 110 110 110 111 112 113
54 55 55 56 55 55 56 56 57 58 58 60 61 63 64 65 67 70 73 75 77 79 81 84 85 86 88 90 93 96 97 98 100 101 102 103 104 104 104 104 105 105 105 105 104 103 101 100 98 97 95 94 93 93 93 93 93 93 94 94 96 97 98 100 100 101 101 102 103 104 105 106 107 107 108 108 108 108 108 108 109 109 109 110 110 111
52 53 53 52 52 53 54 55 56 58 60 61 63 65 67 69 70 71 74 77 80 83 85 86 87 88 90 92 94 97 99 100 101 103 104 106 107 107 107 108 107 108 108 108 107 106 105 103 101 100 99 98 98 98 98 98 98 98 97 97 96 97 98 98 100 100 101 102 103 104 104 105 105 106 107 108 108 108 108 109 109 109 109 109 110 110
49 49 49 50 51 53 55 57 59 61 63 65 67 68 70 72 74 75 75 78 81 84 88 89 88 89 90 92 95 97 99 100 101 103 104 105 107 108 109 109 109 109 109 109 109 109 108 107 105 104 104 103 104 104 104 103 103 103 102 101 100 100 99 99 100 100 101 101 102 103 104 105 105 105 106 107 108 108 109 109 109 109 109 110 110 111
47 48 50 52 54 56 58 60 62 64 65 68 69 71 72 74 76 78 79 80 81 84 88 90 90 89 90 92 95 98 99 100 102 103 104 105 106 108 109 110 110 111 111 111 111 111 110 109 108 107 107 106 106 106 105 105 105 104 103 103 103 103 102 101 101 100 100 101 102 103 104 105 105 105 106 107 108 108 109 109 109 110 110 110 111 112
49 51 53 55 57 59 61 63 64 66 67 69 71 73 74 76 77 79 80 81 82 84 87 90 91 91 90 91 95 97 98 100 102 103 103 105 106 107 108 110 112 113 113 113 113 112 111 109 108 107 107 106 106 105 104 103 103 103 102 102 103 103 103 103 103 102 101 100 100 101 103 104 105 105 106 107 107 107 108 110 110 111 111 112 112 112
51 53 55 57 59 61 63 65 67 68 69 71 72 74 75 77 78 80 81 82 82 83 86 89 90 90 89 91 94 95 97 98 99 100 102 104 105 106 108 110 112 113 113 113 113 112 110 109 108 107 105 105 105 105 103 102 101 101 100 100 102 102 103 103 103 103 102 101 100 100 101 102 103 104 105 106 106 107 107 108 109 111 112 113 113 112
53 55 58 60 62 64 65 67 69 70 71 72 73 75 76 77 78 80 80 81 80 81 84 87 88 88 86 87 91 93 94 96 97 98 100 102 103 105 107 109 110 111 111 111 109 108 108 107 106 105 103 103 103 103 102 100 100 100 99 99 100 102 102 102 102 103 103 103 102 100 100 100 101 102 102 103 105 106 106 107 107 109 111 113 113 112
56 58 60 62 64 66 67 69 70 71 72 73 74 75 76 77 77 78 78 78 77 76 79 81 83 84 83 84 88 92 93 94 95 97 98 99 101 102 104 105 106 106 106 105 105 105 105 104 103 102 101 100 100 100 100 99 99 99 98 97 98 100 101 102 101 101 102 103 103 102 100 100 100 100 100 101 101 103 104 105 105 107 109 111 112 112
58 60 62 64 65 67 69 70 71 72 73 73 74 73 73 74 74 75 75 74 72 69 72 76 78 81 84 85 89 91 92 92 93 94 95 96 98 99 100 100 100 101 101 101 101 102 102 102 101 100 98 97 97 98 99 99 99 98 97 97 98 99 101 101 100 100 100 102 104 104 102 100 99 99 99 99 99 100 102 102 103 105 107 108 109 109
60 62 63 65 66 68 69 70 71 72 72 72 72 72 71 70 69 69 69 69 68 67 70 74 76 79 84 87 88 89 90 90 91 92 93 94 95 95 95 95 96 96 97 97 97 97 98 98 97 95 94 93 94 96 98 98 98 97 97 96 97 98 99 99 98 97 97 97 99 101 102 101 100 98 97 97 97 99 100 101 101 103 105 107 107 107
60 62 63 64 65 66 67 68 69 69 70 70 70 71 71 69 68 67 67 67 65 65 68 71 72 75 80 84 85 85 86 87 88 90 92 92 92 92 92 92 92 92 93 93 92 91 90 91 90 88 87 87 88 91 93 94 94 94 93 92 92 93 94 95 94 94 94 93 94 95 97 98 99 99 97 96 96 97 98 100 100 101 103 105 106 107
60 61 62 62 63 64 64 65 65 66 67 68 69 71 72 72 71 70 69 68 65 62 64 68 70 73 77 79 80 80 81 82 84 87 89 90 89 88 87 87 87 88 88 87 86 85 84 84 84 83 81 81 82 83 84 85 85 85 84 84 85 86 87 88 89 89 90 90 90 90 91 93 95 96 97 96 95 95 96 98 99 100 102 103 104 106
59 60 60 61 61 62 62 63 64 65 66 67 69 70 71 73 73 73 73 73 71 67 65 68 72 76 80 80 80 81 81 82 84 86 87 87 85 84 83 84 85 85 85 84 84 83 84 84 83 81 79 78 77 77 76 77 77 77 76 76 76 77 80 81 83 84 85 85 86 86 86 87 89 90 92 93 93 93 94 95 96 98 100 101 102 103
59 59 59 60 60 61 62 63 63 64 65 65 66 68 69 71 72 73 74 75 76 72 69 71 74 80 85 83 82 83 83 84 85 86 87 86 85 85 85 86 85 84 83 84 84 83 83 83 82 80 78 77 75 73 72 72 72 72 71 71 71 71 72 74 75 76 78 79 80 80 81 81 82 83 85 87 88 90 90 91 92 93 96 98 99 100
58 58 59 59 60 61 61 62 62 62 63 63 65 66 68 70 71 72 72 73 75 73 72 73 75 82 87 86 84 85 84 85 86 88 90 89 87 87 87 86 84 82 82 82 82 81 80 79 78 77 76 74 71 69 68 68 68 67 67 67 68 67 67 67 68 69 70 72 73 73 74 74 75 76 77 79 81 84 86 87 88 88 90 92 94 95
56 57 58 58 59 59 59 60 60 60 61 62 64 65 67 68 70 72 74 74 74 74 73 74 76 83 89 88 87 87 87 89 90 91 92 90 89 87 86 84 82 81 79 78 78 77 76 75 74 72 71 69 67 65 64 63 63 63 63 63 64 64 64 63 62 63 64 65 66 67 68 68 68 69 70 71 73 76 79 81 83 84 85 87 89 91
53 54 55 55 55 56 57 58 58 58 59 61 64 66 67 68 69 72 76 78 79 78 77 75 77 86 91 90 90 90 91 94 94 93 92 90 89 87 84 82 79 77 75 74 73 73 72 72 71 70 68 66 64 62 60 59 58 58 59 59 60 60 61 61 61 61 61 62 63 64 65 65 64 65 65 66 68 70 72 75 77 79 81 82 84 86
49 50 51 53 54 54 55 56 57 57 58 61 63 65 67 69 70 72 76 79 81 81 81 78 78 88 94 93 94 93 93 97 97 95 93 89 87 85 82 80 77 74 72 70 70 69 68 69 68 67 65 63 62 60 58 57 56 56 56 56 56 57 58 59 59 59 60 61 61 62 63 63 63 63 63 64 65 66 68 69 71 73 75 77 79 80
46 48 49 50 52 53 54 54 55 57 60 62 63 64 66 69 70 71 72 75 78 80 83 83 81 88 95 95 95 94 93 97 99 97 93 88 85 83 81 79 76 73 71 69 69 68 65 64 64 63 62 60 58 57 55 54 54 54 55 54 54 55 55 56 57 58 58 60 60 61 62 62 63 63 63 63 64 64 64 65 66 68 70 72 74 75
47 49 49 50 52 52 53 55 58 60 62 64 65 65 67 69 70 72 72 73 76 80 84 85 85 90 96 96 96 94 93 95 97 96 92 85 82 81 79 77 75 73 71 69 67 65 63 60 59 58 58 57 55 54 53 52 53 54 54 54 54 53 54 54 55 56 57 58 59 59 60 61 61 62 63 63 63 63 63 63 63 64 65 67 69 70
50 51 52 54 56 57 58 60 62 63 63 64 66 66 68 71 73 75 76 75 77 81 84 83 84 90 97 98 97 96 93 94 96 95 90 83 80 80 79 76 73 70 69 67 65 63 60 57 55 54 54 53 52 51 50 51 52 53 54 55 55 54 54 54 54 55 56 57 57 58 58 59 59 60 61 61 62 62 62 63 63 63 64 65 66 67
54 55 55 57 60 62 63 63 65 67 67 67 68 69 71 74 75 77 79 78 78 83 87 85 81 85 93 97 97 95 92 91 94 94 89 83 79 77 76 75 72 68 66 65 64 62 59 55 52 50 50 49 49 48 48 48 50 51 53 54 54 54 54 54 54 55 56 56 56 57 56 56 57 58 59 59 60 61 61 61 62 62 63 64 65 66
61 63 63 62 62 62 62 64 68 71 74 75 76 76 77 78 79 80 81 79 78 82 90 91 85 83 88 93 94 93 91 89 91 91 88 85 81 77 74 73 72 69 65 62 60 60 58 55 51 49 47 46 46 46 46 46 47 49 51 51 51 51 52 53 54 55 55 55 55 55 55 54 55 56 57 57 58 58 59 59 59 60 61 61 62 63
68 71 73 72 71 70 70 72 76 78 81 82 82 82 81 80 81 84 84 82 80 82 88 93 91 84 85 89 90 90 89 89 89 88 84 82 81 79 76 73 70 68 65 61 58 57 57 55 52 49 47 45 45 45 45 46 47 47 48 48 48 48 49 50 52 53 54 54 54 53 53 52 53 53 54 54 55 55 56 57 57 58 58 59 59 60
73 75 79 80 79 80 80 81 83 84 85 85 84 84 84 82 82 86 87 85 84 84 84 91 95 91 89 90 91 89 88 88 89 87 82 80 79 79 77 74 72 69 66 63 59 56 55 54 52 50 48 46 45 44 44 46 47 47 47 46 45 44 45 47 49 49 50 51 51 50 50 50 51 52 52 52 53 53 54 55 56 57 57 58 58 59
77 78 81 83 84 84 84 84 85 86 86 86 86 86 86 85 83 86 89 87 88 89 86 87 93 94 93 93 93 91 87 86 87 85 82 80 79 78 77 75 73 70 67 64 60 57 55 53 52 51 49 48 46 46 45 46 46 47 46 46 44 43 42 43 44 45 45 46 46 46 46 48 49 50 50 51 52 52 53 55 56 57 57 58 58 58
79 80 82 85 86 86 86 86 86 87 87 87 87 88 88 87 85 87 89 88 89 93 92 90 92 96 97 96 95 92 88 86 86 86 83 81 79 78 77 75 72 68 64 62 59 57 55 52 51 49 47 47 46 46 46 46 46 46 46 45 44 42 41 40 41 41 41 41 41 42 43 45 47 48 48 49 50 51 52 54 55 56 57 57 57 57
81 82 83 85 87 87 88 88 87 87 88 88 88 89 89 88 87 89 91 89 89 93 96 96 95 96 97 97 96 95 92 89 88 86 84 81 78 76 74 72 71 68 65 61 58 56 54 52 50 48 47 46 46 46 46 46 47 47 46 45 44 43 41 39 38 37 37 37 38 39 41 43 44 45 46 46 47 49 51 52 53 54 55 55 56 56
83 84 85 86 87 88 88 89 89 88 89 89 89 89 89 89 89 92 94 93 91 91 93 96 97 96 96 96 96 97 96 92 88 85 84 81 77 73 70 68 67 67 65 62 59 57 54 52 51 49 48 47 47 46 46 47 47 47 47 46 45 43 40 37 35 34 34 35 35 37 39 40 41 41 42 43 44 46 48 50 51 52 52 52 53 54
84 85 85 86 87 89 89 90 89 89 89 90 89 89 90 91 92 94 98 98 97 96 95 96 98 98 97 95 93 93 92 90 87 85 83 80 76 73 70 66 64 63 62 61 59 57 54 52 50 49 48 47 46 46 46 46 46 47 47 46 45 42 39 36 34 33 33 33 34 36 36 37 37 38 39 40 42 44 45 46 47 48 49 49 50 50
85 86 86 86 87 88 89 91 91 90 90 90 90 90 91 92 92 94 97 98 99 102 101 100 100 99 97 94 91 88 87 86 85 83 82 79 75 73 70 65 62 61 59 57 55 53 52 50 48 46 45 45 44 44 44 44 45 45 45 44 43 41 38 36 33 33 33 34 34 35 35 35 35 36 38 39 40 41 42 43 44 45 45 45 46 46
86 87 88 88 89 89 90 90 91 91 91 91 92 93 94 93 92 94 98 98 98 100 102 101 100 98 96 94 92 89 88 87 85 80 78 77 74 70 68 64 61 58 57 56 54 51 49 47 46 45 43 42 41 42 42 43 43 43 42 41 40 39 37 36 34 34 34 35 35 35 35 35 36 37 38 39 40 40 40 41 41 42 42 43 43 43
88 89 89 90 91 92 92 92 92 93 94 95 95 95 95 95 93 94 98 101 100 100 101 100 100 100 99 97 96 92 89 89 87 81 76 73 71 68 65 62 59 56 54 54 53 52 49 46 45 44 43 42 41 41 42 42 41 41 40 38 38 38 37 35 34 34 35 35 35 34 34 35 35 37 38 39 40 40 40 40 40 40 40 40 40 40
89 91 92 92 93 94 95 96 97 97 98 98 97 97 97 97 96 95 97 101 103 104 103 102 102 103 101 98 95 91 86 85 86 84 79 74 70 67 64 60 57 55 53 52 52 51 49 46 44 43 42 42 41 41 41 41 41 40 39 37 36 36 36 35 35 35 36 35 34 33 32 33 34 35 36 37 38 39 39 39 39 39 39 38 38 38
91 93 94 94 95 96 97 98 98 98 99 100 100 101 101 101 101 101 102 103 105 106 105 104 102 101 98 95 92 88 83 81 81 80 78 75 71 68 65 62 59 57 55 54 53 51 48 45 43 41 41 40 39 39 40 40 40 40 39 38 36 35 34 34 34 35 36 35 34 32 31 31 32 33 34 35 36 37 37 38 37 37 37 37 36 35
92 94 95 97 98 99 100 99 99 99 100 102 104 105 105 105 105 105 105 104 105 105 105 103 101 98 95 93 90 88 84 80 79 78 76 74 72 69 66 65 63 60 58 56 55 53 50 48 44 41 40 39 38 38 38 38 38 39 39 38 37 35 34 33 33 34 35 35 34 32 31 31 31 31 32 33 34 35 35 35 35 35 35 35 34 33
93 95 97 98 99 101 102 103 103 103 103 104 105 106 107 108 108 108 106 104 104 105 105 103 100 98 97 95 92 90 88 83 80 80 78 76 75 72 69 66 64 63 62 59 57 55 52 50 47 44 41 39 37 37 37 37 36 36 37 37 37 35 34 33 33 34 35 35 33 32 31 31 31 31 31 31 32 33 33 33 33 33 32 32 32 31
95 96 98 99 100 102 104 105 106 107 107 108 108 108 108 109 110 110 108 106 105 105 106 106 104 101 100 99 96 94 93 89 86 84 82 80 78 76 72 69 65 63 62 61 59 57 55 52 49 46 43 40 38 36 37 37 36 35 36 37 37 36 34 33 33 34 35 34 32 32 31 30 30 30 29 29 29 30 30 30 30 30 30 30 30 29
96 98 99 101 102 103 106 107 108 108 109 110 111 112 112 110 109 110 111 111 110 109 109 109 107 104 102 101 99 96 95 94 90 87 85 82 79 76 73 70 68 65 62 60 59 58 57 55 51 48 44 41 38 37 37 38 37 35 34 35 36 36 34 33 32 33 34 33 31 30 29 29 29 28 28 27 27 27 27 27 27 27 27 27 27 27
98 99 101 103 104 105 107 109 109 109 110 111 112 114 114 113 112 112 113 114 113 112 111 110 110 106 103 101 101 98 95 94 91 88 86 83 80 77 73 70 68 66 64 62 60 58 57 56 53 49 46 43 39 37 37 38 38 36 35 35 35 35 34 32 31 32 32 31 29 28 28 28 27 27 26 25 25 24 24 24 25 25 25 25 25 25
100 102 103 104 106 108 110 112 113 113 114 114 114 115 116 117 116 116 116 115 115 114 112 111 110 108 104 102 101 99 96 93 91 88 85 82 79 76 73 70 67 65 63 61 60 58 57 55 53 50 46 43 40 37 36 38 39 38 37 36 35 34 33 31 31 31 30 29 28 27 26 26 26 25 24 24 23 22 22 22 22 23 22 23 23 24
102 104 105 107 109 110 112 114 117 117 116 116 116 116 117 118 118 117 117 117 117 117 115 112 111 109 106 103 102 99 95 92 90 87 85 82 79 76 73 70 67 65 63 60 58 57 56 54 53 50 47 44 41 38 36 35 36 37 37 37 36 34 32 30 30 30 29 27 26 25 25 25 24 23 22 21 20 20 21 21 21 21 21 22 22 22
105 106 108 109 110 112 113 114 116 117 117 117 117 117 118 118 117 116 117 117 118 118 116 114 111 109 106 103 100 98 95 92 89 87 84 82 79 76 73 71 67 65 62 60 58 56 54 53 51 49 47 44 41 38 35 33 33 34 35 34 34 33 31 29 29 28 27 25 24 24 24 24 22 21 21 20 18 18 19 20 20 20 20 20 20 19
106 108 109 110 111 112 113 114 115 117 117 118 119 119 119 119 118 117 117 116 116 116 116 114 112 109 106 102 99 97 94 91 87 84 82 80 78 76 73 71 68 65 62 60 58 56 54 53 51 49 46 44 41 38 35 32 31 33 33 33 31 30 30 30 29 27 24 23 22 22 23 22 21 19 19 18 16 16 17 18 18 19 19 19 18 17
109 110 111 112 113 114 114 115 117 118 118 117 118 118 118 118 118 117 116 115 114 113 113 113 111 108 104 100 97 94 92 90 87 84 81 79 77 75 73 70 67 65 62 60 58 55 53 52 51 49 46 44 41 38 35 32 31 32 32 32 31 30 30 30 28 25 23 21 21 21 21 20 19 18 17 16 15 15 15 16 16 17 18 18 16 15
112 112 113 114 115 115 116 116 117 119 120 120 119 118 117 117 117 116 115 113 112 110 109 109 109 107 103 99 95 93 91 89 88 85 82 78 76 74 72 69 66 63 61 60 57 54 52 51 50 48 45 43 41 38 35 33 32 32 31 30 30 29 30 29 26 24 22 21 20 20 20 19 18 16 15 15 15 14 15 15 15 16 16 16 14 13
114 115 115 116 116 117 118 117 117 118 120 120 120 119 119 118 117 115 114 113 111 110 108 107 106 106 104 101 96 94 92 90 88 86 83 79 76 73 70 69 66 62 60 58 56 53 51 50 49 47 45 42 40 38 36 34 32 31 30 29 28 28 27 26 24 22 21 20 20 19 19 18 17 15 14 13 14 14 15 15 14 14 14 13 12 11
117 118 118 118 118 119 120 120 120 120 120 121 121 120 120 119 118 117 115 114 113 113 111 109 106 104 103 102 99 95 92 91 89 86 83 80 77 73 70 67 66 63 61 59 57 54 51 49 48 47 45 43 41 39 37 35 33 32 30 29 28 26 25 24 22 21 19 19 18 18 17 17 16 14 13 13 13 14 14 14 14 13 12 11 9 8
121 121 121 121 121 122 122 123 124 124 123 123 123 123 122 120 119 118 117 116 116 115 114 111 108 105 102 101 99 96 93 91 89 86 83 80 78 75 71 67 65 63 61 59 58 55 52 50 49 48 45 44 42 41 38 36 34 32 30 29 27 25 24 22 21 19 18 17 17 17 16 15 14 13 12 12 13 13 13 13 13 12 10 9 7 7
Wind_Direction
298 297 297 297 297 296 296 295 295 295 295 295 295 295 295 295 295 294 294 294 293 293 292 292 292 292 292 293 293 293 292 292 292 292 291 290 290 290 290 290 289 288 288 286 285 284 283 281 280 279 278 277 276 275 274 274 273 273 273 273 273 273 273 273 273 273 272 271 270 269 269 268 267 267 266 266 265 265 265 264 263 262 262 262 262 261
299 298 297 297 296 296 296 296 297 297 297 298 297 297 297 297 297 296 295 295 295 295 295 295 295 296 296 297 297 297 297 297 297 297 296 296 295 294 294 293 293 292 291 290 290 289 288 287 286 285 283 282 281 280 278 277 275 274 273 273 272 272 272 271 271 271 271 271 271 270 270 269 268 267 266 266 265 264 264 264 263 263 262 262 262 261
298 298 298 298 299 299 300 300 300 299 299 298 298 298 298 298 299 299 299 299 299 298 297 297 297 298 297 297 297 297 297 297 297 297 297 296 296 295 295 294 293 292 292 292 291 291 290 290 290 289 288 287 286 285 284 283 281 279 277 275 274 273 272 271 270 269 269 269 269 269 268 268 268 267 267 266 265 265 264 263 263 263 262 261 261 261
300 301 301 302 302 302 302 301 301 300 300 300 300 300 301 300 300 299 299 299 299 298 297 297 296 296 296 295 294 295 295 295 295 295 294 294 294 293 293 293 292 292 292 292 292 292 292 292 292 292 291 291 290 289 288 287 285 284 282 280 277 275 274 272 271 269 268 267 267 266 266 265 266 266 266 266 265 264 264 263 263 262 262 261 261 260
303 303 303 303 304 304 304 304 303 303 303 303 302 302 301 300 300 299 298 297 297 296 296 295 295 294 294 293 292 292 292 292 292 292 292 292 292 292 292 292 292 292 292 292 292 292 292 293 293 293 292 291 291 290 289 288 287 285 284 282 280 278 276 274 272 271 269 268 267 266 265 264 264 263 264 264 264 263 263 263 262 262 262 261 261 261
304 305 306 306 307 307 306 305 304 303 303 302 302 301 300 300 299 298 297 296 294 293 293 294 293 293 292 291 291 292 292 292 292 292 292 292 292 292 292 292 292 292 292 292 292 292 292 292 292 291 291 290 289 288 287 286 285 284 283 282 281 280 278 277 274 272 270 269 268 267 266 265 264 263 263 262 262 262 262 262 261 261 261 260 260 260
309 310 309 308 307 305 304 303 302 302 302 301 301 300 299 298 297 296 296 295 294 293 293 294 293 293 293 292 292 293 293 292 292 292 292 292 291 291 291 291 291 292 292 293 293 293 293 293 292 291 290 289 288 287 286 285 284 283 282 281 281 280 279 278 277 274 272 270 269 268 268 267 266 265 263 262 262 262 261 261 261 260 260 259 259 259
310 309 308 306 304 303 303 302 302 302 301 300 300 299 298 297 297 296 295 295 295 295 295 295 295 295 295 294 294 293 293 293 292 291 291 290 290 290 290 290 291 291 292 292 293 293 293 293 292 291 291 290 289 288 286 285 284 283 282 281 280 280 279 278 277 276 275 273 271 269 268 268 267 266 265 264 263 262 261 261 261 260 259 259 259 258
308 307 305 305 304 304 303 303 302 302 301 300 299 298 298 298 297 297 297 298 298 298 297 297 297 297 297 296 295 293 292 292 291 291 290 290 290 290 290 290 290 291 291 292 292 292 292 291 291 291 290 290 289 288 288 287 285 284 282 281 280 279 278 277 277 276 276 275 273 272 270 269 268 267 267 266 265 264 263 261 261 261 260 260 259 258
307 306 305 305 305 304 304 303 302 301 301 300 300 300 300 301 300 300 301 301 302 303 302 300 300 299 298 296 294 293 293 292 292 291 291 291 290 290 290 290 290 290 291 291 291 291 290 290 290 290 290 289 289 288 287 286 285 283 282 281 280 279 278 277 276 276 275 275 274 273 271 270 269 268 268 267 266 266 265 264 263 262 261 261 260 259
308 307 306 306 305 305 304 303 303 303 303 303 303 303 304 304 304 305 305 306 306 306 304 302 301 300 298 295 294 293 293 293 293 293 293 292 291 291 291 292 292 292 292 291 291 290 290 290 290 290 289 289 288 287 286 285 283 282 281 281 279 278 277 276 275 275 274 273 273 273 272 271 270 269 268 268 267 267 266 266 265 264 263 262 261 260
308 307 307 306 306 306 306 307 307 307 307 307 307 307 307 307 306 306 305 304 304 305 304 302 301 301 299 296 295 295 296 297 297 297 296 295 294 294 294 294 294 294 293 292 292 291 291 290 290 289 289 288 286 285 284 283 282 282 281 280 279 278 277 276 275 274 272 270 270 270 271 272 271 269 268 267 266 266 265 265 265 265 265 264 263 262
308 308 307 308 308 309 309 310 310 310 310 311 310 309 308 306 304 303 301 299 301 305 308 307 304 302 300 299 299 299 300 301 301 299 298 297 297 297 298 297 296 295 294 293 293 292 290 289 288 287 285 284 282 281 281 281 281 280 280 279 277 276 275 275 274 273 272 270 268 267 267 268 269 269 268 267 265 264 263 263 263 263 263 263 264 264
311 311 311 312 312 311 311 311 311 311 312 312 312 311 309 307 307 306 305 304 304 308 313 313 311 307 303 302 302 303 303 302 301 300 300 300 300 300 300 299 298 298 297 297 296 294 292 290 289 287 286 284 282 281 280 280 279 279 278 277 275 274 274 273 272 272 271 270 269 267 266 265 265 266 267 267 266 265 263 263 262 262 262 262 262 263
314 315 315 315 314 314 313 313 314 315 316 316 315 314 313 313 314 315 315 314 314 315 318 318 317 313 308 307 308 308 307 306 304 303 302 302 303 303 303 303 303 303 303 302 300 299 297 296 294 293 291 289 286 285 284 283 282 280 279 277 275 274 273 272 271 271 271 270 269 268 267 266 266 266 266 267 267 266 265 264 263 262 262 262 262 262
319 319 318 317 317 317 317 317 319 319 319 318 317 316 316 317 319 320 319 319 318 320 322 321 320 317 313 312 313 312 311 310 308 307 307 307 308 309 309 309 309 308 306 304 303 302 300 299 298 296 295 293 291 290 288 287 285 284 282 280 278 275 274 273 272 272 271 271 270 269 268 267 266 266 266 266 266 266 265 264 263 262 262 262 262 262
322 321 320 320 320 320 320 321 321 321 321 320 319 318 320 321 322 321 319 319 318 320 322 323 321 318 315 315 314 314 314 313 313 313 312 312 313 313 313 313 311 309 307 306 304 303 301 300 298 297 296 294 293 292 291 289 288 286 285 283 281 279 277 276 275 274 273 272 272 271 269 268 267 265 264 263 263 264 264 264 263 262 261 261 261 260
323 323 322 323 323 323 323 324 324 325 324 323 322 323 323 324 323 322 320 319 319 320 323 324 324 321 317 317 317 318 319 318 317 316 315 315 316 316 316 314 312 310 309 307 305 304 303 301 299 298 297 296 295 293 292 290 289 287 286 285 284 283 282 280 278 276 275 274 273 272 271 269 268 266 265 263 261 261 261 261 262 262 261 260 260 260
326 325 325 326 326 325 326 328 328 328 328 327 327 327 327 325 325 324 324 323 323 324 323 323 327 326 321 320 322 322 322 320 318 317 317 318 319 318 317 314 312 311 310 308 307 306 305 303 302 301 300 299 298 296 294 292 290 288 286 285 284 283 283 282 281 279 278 276 275 275 274 273 271 269 267 266 264 262 261 260 260 261 261 260 260 260
330 330 330 330 329 330 332 333 332 331 331 331 331 331 330 328 328 328 328 328 327 326 323 323 330 330 325 325 325 325 324 322 320 319 319 321 322 320 318 315 314 314 312 311 310 308 307 306 304 303 302 301 300 298 296 294 292 289 287 285 284 282 282 281 280 280 279 278 277 277 276 276 275 273 272 270 268 265 264 263 262 261 261 261 261 261
337 337 338 337 336 337 339 337 335 335 336 336 336 335 333 331 330 329 329 329 329 329 326 326 332 333 329 328 327 326 325 323 321 320 321 324 324 321 319 318 317 317 315 314 312 310 308 307 305 303 302 301 300 298 297 295 293 290 288 286 285 283 282 281 280 280 279 279 278 278 277 277 276 276 275 274 272 270 268 266 265 264 263 262 262 262
345 345 345 344 343 344 344 343 342 342 341 341 339 337 335 332 331 329 328 331 334 334 331 330 335 335 331 329 328 327 327 325 322 321 323 326 325 322 321 320 320 319 317 316 313 311 309 308 306 304 303 302 301 299 298 296 294 292 290 288 287 285 283 282 282 281 280 279 279 278 278 278 277 277 276 275 275 273 272 271 269 268 266 264 263 263
349 349 350 350 349 349 350 350 348 344 342 341 340 339 337 335 334 333 331 335 338 336 332 332 336 336 333 331 330 329 328 326 323 322 325 327 327 324 323 322 320 320 319 317 315 313 311 310 308 306 304 303 302 300 299 298 296 294 293 291 290 288 287 286 284 283 282 281 280 279 279 279 278 277 276 276 275 274 274 273 272 271 270 269 267 266
351 351 352 354 354 354 354 352 351 348 345 344 344 343 342 340 339 336 335 338 340 337 334 333 335 336 334 332 331 329 329 327 324 324 326 328 328 326 324 323 322 322 321 320 318 315 313 312 310 307 305 304 302 301 299 297 295 293 292 291 291 290 289 289 287 285 284 283 282 281 280 280 279 278 277 276 275 275 274 273 273 272 271 271 270 269
356 355 355 356 356 354 353 352 352 352 351 351 350 349 347 344 342 339 337 339 341 339 338 335 334 335 334 333 332 330 330 328 326 326 328 329 329 327 326 326 326 325 324 322 320 317 316 314 313 310 308 306 304 302 299 297 294 292 291 290 290 290 290 289 288 286 286 284 284 283 281 280 279 278 277 276 276 276 275 274 274 273 272 271 271 270
3 1 359 359 358 356 354 354 354 354 354 353 352 351 348 345 344 340 337 340 341 340 340 337 334 334 334 334 333 332 331 330 327 328 330 331 330 330 329 329 328 327 325 324 323 320 318 317 315 314 311 309 306 303 300 297 294 292 291 291 291 291 290 289 288 286 286 285 284 283 282 281 280 278 277 277 277 277 277 276 276 275 274 273 272 272
7 6 3 2 2 360 358 358 356 355 355 353 352 351 349 346 345 341 338 341 341 339 339 337 335 335 337 337 336 335 334 332 329 329 331 333 332 332 331 331 330 329 328 327 326 323 321 319 318 316 314 312 309 305 302 298 296 294 293 292 292 291 290 287 286 284 284 283 283 283 282 282 280 280 279 280 279 279 279 279 278 277 276 276 275 274
9 8 6 4 3 2 360 359 358 356 355 353 352 351 350 348 347 342 339 342 342 338 338 338 336 337 339 339 339 337 336 333 330 331 333 335 335 334 333 333 332 331 329 328 327 325 323 321 319 318 316 314 311 307 304 300 297 296 295 295 295 293 291 287 285 284 283 282 282 282 282 281 280 280 281 281 281 281 280 279 278 278 277 277 276 276
10 9 8 6 4 3 0 359 359 357 355 354 353 352 351 349 348 343 340 342 342 340 339 339 339 340 341 341 340 338 337 335 333 334 335 336 336 335 334 333 332 330 329 328 327 326 323 322 320 318 316 313 311 308 305 303 300 299 299 298 298 296 294 291 288 286 285 284 284 283 281 280 280 281 281 281 280 280 278 277 277 277 276 276 276 276
10 9 8 7 5 3 1 360 359 357 355 354 353 353 351 350 349 344 341 342 343 341 341 342 342 342 342 342 341 340 339 339 337 336 335 336 337 336 335 334 332 330 330 329 328 326 324 322 321 319 316 314 311 309 307 304 303 302 301 301 300 298 296 294 291 290 288 287 286 284 282 281 281 282 281 281 280 278 277 276 276 275 275 276 276 275
10 9 8 8 6 4 2 1 359 358 356 355 354 353 351 351 351 346 341 343 343 342 342 342 342 343 342 342 342 342 341 340 337 336 336 336 337 335 334 335 334 331 330 330 328 327 325 324 322 320 318 316 313 310 308 305 304 303 303 302 301 300 299 297 295 294 292 290 288 285 283 282 282 281 280 279 278 276 275 275 275 275 275 275 274 274
10 9 8 7 6 4 2 1 360 358 356 355 353 352 351 352 353 348 343 344 344 342 343 343 343 343 343 343 343 342 341 338 337 337 337 336 336 335 335 336 336 333 331 330 328 327 325 324 322 320 318 316 313 310 307 306 304 304 303 303 302 302 302 301 300 298 296 293 289 287 285 284 284 282 281 279 277 276 275 275 275 275 275 275 275 275
9 8 7 6 6 5 3 2 0 358 356 355 353 352 351 352 353 349 343 343 345 344 344 345 344 343 343 342 342 342 341 339 338 339 339 337 336 335 335 336 336 334 331 329 328 327 326 324 322 320 318 315 313 310 308 306 306 305 305 305 305 305 305 304 304 302 299 296 293 291 290 290 289 287 285 283 281 280 279 278 277 276 276 277 277 277
8 7 6 5 5 5 3 2 1 359 357 355 353 353 352 350 352 351 346 343 345 346 346 345 344 342 343 343 342 343 343 342 340 341 341 339 337 335 335 335 336 334 332 330 329 328 327 326 324 322 319 316 313 310 308 307 306 306 306 307 307 307 307 307 307 305 302 299 297 297 297 296 295 293 290 288 287 285 283 282 281 280 281 280 280 280
7 7 6 5 4 4 2 1 1 359 357 356 354 353 352 350 351 352 349 346 346 346 346 345 343 343 345 344 343 344 345 343 340 341 342 340 338 336 335 335 336 335 334 332 331 330 330 329 327 325 322 320 317 313 311 310 309 309 309 309 308 308 308 308 308 306 303 300 300 300 300 298 296 294 292 291 289 288 287 286 285 285 285 284 283 283
7 6 5 4 3 3 2 1 1 0 359 357 355 353 352 351 350 351 350 348 347 346 345 344 345 345 345 345 343 343 345 344 341 340 342 341 339 338 337 337 338 337 337 336 334 333 333 332 331 328 326 323 320 317 314 312 311 311 310 310 310 309 310 310 309 307 303 301 301 301 299 297 295 294 293 291 290 289 289 289 289 289 288 287 286 286
7 6 5 4 3 3 2 1 1 0 359 357 356 354 353 352 351 351 350 349 347 345 344 345 346 345 344 344 343 342 344 345 342 341 342 342 341 341 341 341 341 340 340 339 337 336 335 334 333 330 327 324 321 317 314 312 312 312 313 313 312 312 312 312 310 307 304 303 303 303 300 298 296 295 294 292 291 290 290 291 291 291 290 289 289 288
7 6 5 4 4 3 2 1 360 359 359 358 357 356 354 353 352 352 351 350 348 345 345 345 345 345 344 345 344 343 345 346 344 344 345 344 342 342 344 344 343 342 342 341 339 338 337 336 335 333 330 327 323 319 315 313 313 313 314 314 314 314 314 312 310 307 305 305 306 305 303 300 298 296 294 293 292 291 291 292 292 292 291 291 291 291
7 6 6 5 4 4 3 1 0 360 359 358 357 356 355 354 353 352 351 350 348 346 345 344 345 346 346 346 347 346 346 347 347 347 347 346 345 345 346 346 346 344 343 342 341 339 338 337 337 336 333 330 325 321 316 314 313 313 313 313 314 315 316 314 311 308 306 307 308 305 303 301 298 296 294 292 292 291 291 292 292 292 292 293 294 294
7 7 6 5 4 4 3 3 2 1 0 360 358 357 356 355 354 352 349 349 348 347 346 345 346 348 348 348 349 349 348 348 349 349 349 348 347 346 346 346 346 345 344 343 341 339 338 338 338 337 335 333 329 323 318 316 315 315 314 314 315 316 317 315 311 308 306 308 308 305 302 300 297 295 294 292 292 292 293 292 293 293 294 295 295 296
7 7 6 5 5 4 3 3 3 2 1 1 359 357 356 355 354 352 350 349 349 348 347 346 347 349 350 349 349 350 350 349 348 349 349 348 347 346 346 346 345 345 344 343 342 340 339 338 338 338 336 334 331 326 321 318 317 318 317 316 315 316 317 316 311 307 306 308 308 305 302 300 297 296 295 293 293 293 294 294 295 296 296 296 297 299
7 6 6 5 4 4 4 2 2 2 1 1 360 358 356 355 354 353 352 350 349 348 348 348 347 349 350 351 350 350 350 349 348 349 349 348 346 346 346 346 345 344 344 344 342 340 339 338 338 338 337 334 331 328 323 320 319 320 320 318 316 316 317 317 314 309 309 310 308 305 302 299 298 297 296 295 296 296 296 297 298 298 298 298 300 302
7 6 5 5 4 4 3 2 2 2 1 0 360 358 356 355 354 353 352 351 349 349 348 348 348 348 350 351 351 350 350 349 348 349 349 348 346 345 345 346 346 345 345 344 342 340 338 338 337 337 336 334 332 329 325 322 321 322 321 320 319 319 320 320 316 312 311 312 309 305 302 300 299 298 297 297 299 300 300 301 301 301 301 302 303 302
7 6 6 5 4 4 4 3 2 2 1 0 359 359 357 356 355 354 352 351 350 349 349 348 348 349 350 352 351 350 350 350 349 349 350 348 346 346 346 346 346 345 344 344 342 340 338 337 337 336 336 334 332 330 328 325 322 321 320 319 320 321 322 320 315 312 313 313 310 307 304 302 301 300 299 299 301 303 304 306 305 305 305 305 303 301
7 6 6 6 6 5 4 4 3 1 1 1 0 359 358 356 355 354 353 352 351 350 349 348 348 349 350 352 351 350 349 350 349 350 350 349 346 346 346 346 346 345 344 343 342 340 338 338 337 336 335 333 331 330 328 326 323 320 318 318 320 321 320 316 313 312 314 314 310 307 306 304 304 303 301 301 304 306 308 309 308 308 307 305 303 302
7 7 6 6 6 5 5 4 3 2 1 1 1 -0 359 357 356 355 354 353 352 351 349 348 348 349 350 351 351 350 349 349 350 350 351 349 347 346 346 345 345 345 344 343 342 341 339 338 338 337 335 333 331 330 329 328 325 322 320 321 322 321 317 313 314 316 317 314 311 308 307 307 306 305 303 304 308 312 313 311 310 309 308 305 304 305
7 7 6 5 5 5 5 5 4 3 1 1 1 0 359 358 357 355 354 353 352 351 350 349 348 349 349 351 351 351 350 349 349 350 351 350 347 346 346 345 345 345 344 343 342 341 340 339 338 337 335 333 331 330 331 331 329 326 324 323 323 320 316 315 318 320 319 316 313 312 311 310 309 307 306 309 315 319 318 315 312 311 309 306 305 308
7 6 6 5 5 4 4 4 4 3 2 1 0 360 359 358 357 355 354 353 352 352 351 350 349 348 349 350 351 351 350 349 349 350 351 350 348 347 346 345 345 345 344 342 341 342 341 340 339 338 336 334 332 332 334 335 334 330 327 325 323 320 318 319 320 321 319 317 317 316 316 314 312 310 312 316 323 326 324 320 317 314 311 309 309 313
7 6 6 5 5 4 3 3 3 3 2 1 360 359 359 358 357 355 354 353 352 352 351 351 350 349 349 350 352 352 351 350 349 350 350 350 348 348 347 345 345 346 345 342 341 342 342 341 339 339 337 336 334 335 337 338 337 333 330 327 324 322 321 321 321 319 318 318 319 319 319 317 314 314 318 326 332 332 328 324 320 316 313 313 315 320
7 6 6 5 5 4 3 2 2 2 1 360 359 359 358 358 357 356 354 353 352 352 352 351 350 350 350 350 351 352 352 350 349 349 350 349 348 348 348 346 345 346 346 343 342 343 343 342 341 340 339 338 337 337 340 341 339 336 333 330 327 326 325 323 321 319 319 319 320 322 322 319 317 318 325 335 339 336 330 326 322 318 317 319 323 330
7 6 6 6 5 4 3 2 2 2 1 360 359 359 358 358 357 356 355 354 354 353 352 351 350 351 351 351 351 352 352 350 349 349 350 349 348 348 348 348 346 346 346 344 343 343 344 343 342 342 342 342 340 339 341 343 340 337 336 333 330 330 328 325 322 321 321 321 322 324 324 320 319 325 334 343 345 339 334 330 326 322 323 326 332 347
Height
10613 10609 10605 10601 10597 10592 10587 10583 10578 10573 10568 10564 10559 10555 10549 10543 10537 10532 10528 10522 10515 10508 10499 10494 10492 10486 10477 10470 10463 10456 10451 10447 10443 10438 10433 10429 10425 10419 10412 10406 10401 10396 10390 10385 10381 10377 10374 10371 10367 10364 10361 10359 10356 10353 10351 10348 10345 10341 10338 10335 10332 10329 10326 10323 10320 10318 10316 10315 10314 10313 10312 10311 10310 10309 10309 10309 10308 10309 10309 10310 10313 10314 10315 10315 10315 10317
10606 10602 10598 10594 10590 10586 10581 10576 10571 10566 10561 10556 10551 10546 10541 10537 10530 10522 10517 10513 10506 10499 10491 10484 10480 10477 10469 10460 10452 10444 10438 10433 10428 10421 10416 10412 10407 10402 10397 10391 10385 10379 10373 10368 10364 10360 10356 10353 10350 10347 10344 10342 10339 10336 10333 10331 10328 10325 10322 10319 10316 10312 10309 10306 10304 10301 10298 10296 10295 10294 10293 10292 10292 10291 10291 10291 10291 10292 10292 10292 10293 10295 10297 10298 10298 10299
10601 10596 10591 10587 10583 10578 10573 10568 10563 10559 10554 10549 10544 10538 10534 10529 10524 10516 10507 10501 10496 10489 10481 10475 10470 10465 10459 10451 10442 10434 10428 10422 10415 10408 10401 10395 10389 10385 10380 10375 10369 10362 10357 10352 10347 10343 10340 10336 10333 10329 10327 10324 10321 10318 10315 10311 10308 10305 10303 10300 10297 10294 10290 10287 10285 10283 10281 10278 10276 10275 10274 10273 10272 10272 10272 10273 10273 10274 10275 10275 10276 10277 10278 10280 10281 10282
10594 10589 10584 10580 10576 10571 10566 10561 10556 10551 10546 10541 10536 10531 10526 10520 10516 10512 10503 10494 10486 10478 10471 10466 10462 10456 10449 10442 10433 10424 10419 10413 10405 10397 10390 10383 10376 10370 10364 10359 10353 10347 10341 10336 10330 10326 10322 10319 10315 10312 10309 10306 10303 10300 10296 10292 10288 10285 10282 10279 10276 10274 10271 10268 10265 10263 10261 10259 10257 10255 10255 10255 10254 10253 10253 10253 10255 10256 10257 10257 10258 10260 10261 10262 10263 10264
10588 10583 10579 10574 10569 10565 10559 10553 10548 10543 10538 10533 10528 10523 10518 10512 10505 10500 10496 10489 10480 10470 10460 10455 10453 10448 10441 10432 10422 10415 10410 10403 10396 10388 10381 10373 10365 10357 10350 10344 10338 10332 10327 10321 10316 10310 10306 10302 10298 10295 10292 10289 10286 10282 10278 10275 10270 10266 10262 10258 10255 10253 10250 10248 10245 10243 10242 10241 10239 10237 10236 10236 10236 10236 10235 10234 10235 10237 10238 10239 10240 10241 10243 10244 10245 10245
10583 10578 10573 10568 10563 10558 10553 10547 10542 10537 10531 10525 10520 10514 10509 10503 10496 10489 10484 10480 10473 10464 10453 10446 10443 10440 10435 10424 10412 10405 10399 10391 10384 10376 10369 10360 10353 10344 10336 10329 10322 10315 10310 10305 10300 10296 10292 10288 10284 10281 10277 10273 10269 10265 10261 10257 10252 10248 10245 10240 10236 10233 10230 10228 10226 10224 10224 10224 10222 10220 10219 10218 10218 10219 10219 10217 10217 10218 10219 10221 10222 10223 10224 10225 10226 10227
10576 10571 10566 10562 10557 10551 10546 10540 10535 10530 10525 10518 10512 10506 10500 10494 10488 10481 10475 10468 10463 10455 10445 10437 10430 10427 10424 10413 10402 10395 10386 10378 10370 10361 10354 10346 10338 10330 10322 10314 10306 10299 10293 10288 10283 10278 10274 10270 10267 10264 10261 10256 10252 10248 10245 10240 10235 10230 10228 10224 10219 10216 10212 10209 10206 10205 10205 10206 10206 10205 10204 10203 10201 10201 10202 10201 10201 10202 10202 10202 10204 10205 10206 10207 10209 10210
10570 10566 10560 10555 10550 10544 10539 10533 10527 10522 10517 10511 10505 10498 10492 10485 10479 10472 10465 10459 10453 10444 10434 10427 10418 10415 10413 10399 10387 10382 10372 10365 10358 10348 10340 10332 10324 10317 10309 10301 10294 10287 10280 10274 10268 10263 10257 10252 10248 10244 10241 10237 10232 10227 10224 10221 10217 10213 10211 10208 10203 10199 10196 10193 10189 10186 10185 10186 10187 10189 10188 10187 10186 10185 10185 10184 10183 10185 10185 10185 10185 10186 10187 10189 10191 10194
10564 10559 10553 10548 10542 10536 10531 10525 10519 10514 10508 10503 10497 10490 10483 10477 10470 10462 10456 10449 10443 10434 10423 10416 10407 10403 10403 10389 10374 10369 10361 10352 10346 10337 10329 10320 10312 10304 10296 10289 10282 10275 10268 10261 10255 10249 10243 10237 10232 10228 10225 10221 10215 10208 10204 10201 10197 10193 10192 10191 10186 10181 10178 10175 10173 10171 10168 10166 10167 10169 10170 10169 10169 10168 10168 10168 10166 10165 10166 10168 10169 10168 10168 10170 10172 10176
10558 10553 10546 10540 10534 10528 10522 10516 10511 10505 10499 10493 10488 10482 10475 10468 10461 10453 10446 10440 10435 10425 10412 10406 10397 10388 10389 10381 10363 10354 10348 10341 10334 10326 10317 10309 10299 10291 10284 10277 10270 10264 10257 10250 10242 10235 10228 10223 10218 10214 10210 10206 10201 10194 10188 10183 10178 10174 10173 10171 10169 10165 10160 10157 10156 10155 10153 10149 10147 10149 10150 10150 10151 10150 10150 10151 10151 10149 10147 10149 10151 10151 10151 10152 10153 10156
10551 10545 10539 10533 10526 10520 10513 10507 10501 10495 10489 10483 10478 10474 10467 10460 10452 10444 10437 10431 10426 10418 10405 10398 10391 10377 10371 10368 10357 10345 10337 10331 10324 10316 10307 10297 10287 10278 10272 10265 10257 10250 10243 10235 10228 10221 10214 10207 10202 10197 10194 10191 10186 10178 10170 10164 10160 10157 10156 10153 10151 10148 10142 10139 10140 10139 10138 10134 10129 10128 10130 10132 10133 10133 10133 10133 10135 10134 10132 10131 10132 10132 10132 10134 10135 10137
10544 10538 10532 10526 10519 10512 10505 10497 10491 10485 10479 10474 10468 10463 10458 10453 10448 10440 10433 10426 10419 10411 10397 10390 10385 10369 10356 10351 10345 10336 10327 10318 10311 10302 10292 10283 10274 10267 10260 10252 10244 10236 10228 10220 10214 10209 10200 10193 10187 10184 10180 10175 10170 10162 10153 10146 10142 10140 10139 10136 10134 10130 10124 10121 10123 10122 10121 10120 10116 10112 10112 10113 10114 10115 10116 10117 10118 10118 10116 10116 10117 10116 10114 10114 10115 10117
10538 10532 10526 10520 10513 10506 10499 10491 10484 10477 10471 10466 10459 10452 10447 10443 10440 10435 10429 10424 10418 10406 10391 10382 10377 10365 10351 10340 10333 10328 10320 10310 10299 10287 10276 10267 10260 10255 10247 10239 10232 10222 10214 10206 10200 10195 10187 10179 10174 10171 10167 10162 10155 10147 10139 10133 10128 10125 10123 10121 10118 10114 10107 10104 10105 10103 10101 10101 10100 10099 10099 10098 10097 10097 10098 10098 10100 10100 10099 10098 10100 10101 10100 10099 10098 10097
10532 10526 10519 10513 10507 10500 10494 10488 10481 10474 10467 10460 10451 10442 10434 10428 10424 10419 10414 10410 10409 10403 10388 10374 10363 10354 10345 10335 10326 10322 10315 10303 10291 10276 10264 10256 10249 10244 10236 10227 10218 10208 10199 10191 10183 10177 10170 10162 10156 10153 10150 10145 10138 10132 10125 10120 10115 10111 10108 10105 10102 10098 10093 10089 10088 10086 10084 10083 10083 10083 10084 10084 10083 10082 10082 10081 10082 10083 10082 10082 10083 10083 10083 10083 10083 10082
10526 10520 10514 10508 10501 10494 10488 10482 10475 10468 10460 10452 10442 10432 10422 10412 10406 10400 10392 10386 10385 10386 10379 10364 10349 10335 10325 10320 10314 10308 10300 10289 10278 10265 10253 10245 10238 10232 10224 10213 10203 10194 10183 10173 10164 10158 10150 10142 10136 10133 10130 10124 10119 10115 10110 10104 10099 10095 10092 10089 10086 10083 10078 10075 10073 10072 10070 10069 10068 10068 10068 10068 10068 10069 10069 10068 10068 10067 10067 10067 10067 10068 10067 10067 10068 10068
10519 10513 10507 10501 10495 10488 10481 10475 10468 10460 10453 10445 10434 10424 10414 10405 10398 10390 10381 10372 10366 10366 10363 10352 10339 10319 10303 10303 10300 10292 10284 10273 10260 10249 10238 10230 10224 10216 10207 10198 10188 10178 10168 10157 10148 10141 10133 10125 10118 10113 10109 10105 10101 10098 10093 10088 10083 10079 10076 10073 10070 10068 10065 10062 10060 10059 10057 10056 10054 10053 10054 10055 10055 10056 10056 10055 10054 10053 10052 10053 10053 10053 10052 10052 10053 10054
10512 10506 10500 10494 10488 10481 10474 10468 10462 10454 10445 10437 10427 10417 10409 10399 10391 10381 10375 10368 10359 10357 10351 10340 10330 10309 10289 10289 10287 10278 10270 10258 10245 10234 10222 10214 10209 10201 10191 10183 10174 10164 10154 10145 10135 10127 10120 10112 10106 10099 10094 10090 10086 10083 10079 10074 10070 10066 10062 10058 10054 10052 10050 10049 10048 10046 10044 10042 10040 10040 10040 10041 10041 10042 10043 10043 10041 10039 10038 10038 10038 10038 10038 10037 10038 10039
10508 10501 10495 10489 10481 10474 10468 10462 10456 10447 10437 10428 10419 10411 10403 10394 10384 10372 10364 10359 10352 10349 10343 10332 10318 10296 10279 10275 10270 10260 10251 10239 10228 10219 10209 10202 10195 10187 10178 10168 10159 10150 10142 10133 10123 10114 10106 10098 10092 10087 10082 10077 10073 10070 10066 10062 10058 10054 10050 10046 10042 10038 10036 10035 10035 10033 10031 10029 10027 10026 10025 10026 10027 10028 10028 10029 10029 10028 10026 10025 10024 10024 10024 10023 10023 10023
10505 10497 10490 10484 10477 10469 10463 10456 10448 10440 10430 10420 10411 10403 10394 10385 10378 10365 10351 10342 10335 10331 10328 10325 10311 10284 10267 10263 10254 10245 10234 10220 10210 10202 10194 10189 10181 10171 10163 10153 10145 10138 10129 10121 10112 10103 10094 10085 10078 10073 10068 10064 10060 10057 10053 10050 10047 10043 10039 10036 10032 10028 10024 10022 10021 10020 10018 10016 10015 10013 10012 10012 10013 10014 10015 10015 10015 10015 10014 10013 10012 10012 10012 10011 10010 10011
10501 10494 10486 10479 10472 10465 10459 10451 10442 10433 10425 10416 10407 10399 10388 10377 10369 10359 10346 10333 10324 10317 10310 10310 10302 10274 10252 10248 10240 10232 10221 10203 10191 10184 10180 10176 10168 10157 10147 10137 10131 10125 10116 10109 10100 10093 10086 10076 10067 10061 10056 10052 10048 10044 10041 10038 10035 10031 10028 10026 10023 10020 10016 10013 10011 10009 10006 10005 10003 10002 10000 10000 10000 10001 10001 10002 10002 10002 10002 10002 10002 10001 10001 10000 10000 10000
10498 10491 10484 10476 10468 10462 10455 10447 10437 10428 10419 10411 10402 10394 10384 10372 10363 10356 10348 10335 10322 10311 10296 10291 10289 10268 10245 10237 10229 10221 10211 10192 10175 10168 10166 10165 10156 10143 10133 10123 10116 10110 10103 10097 10089 10081 10076 10069 10060 10053 10047 10043 10039 10035 10032 10028 10024 10020 10017 10015 10013 10010 10007 10004 10001 9999 9997 9995 9993 9992 9990 9989 9989 9989 9988 9988 9989 9989 9990 9990 9991 9991 9991 9990 9989 9989
10494 10487 10481 10473 10465 10459 10451 10441 10432 10422 10414 10405 10396 10387 10377 10366 10357 10348 10341 10333 10318 10303 10289 10279 10274 10257 10237 10227 10219 10210 10202 10184 10166 10156 10155 10155 10145 10131 10122 10113 10105 10098 10090 10085 10079 10071 10065 10060 10053 10045 10039 10034 10031 10027 10023 10019 10016 10011 10007 10005 10003 10001 9998 9996 9993 9990 9988 9986 9984 9983 9981 9980 9979 9978 9977 9977 9976 9976 9977 9978 9978 9978 9979 9978 9977 9978
10490 10483 10476 10467 10458 10451 10443 10435 10426 10417 10410 10402 10391 10382 10372 10360 10349 10336 10327 10323 10312 10296 10285 10278 10271 10251 10228 10214 10205 10197 10190 10174 10155 10144 10142 10142 10135 10121 10110 10103 10096 10090 10081 10073 10066 10060 10054 10050 10045 10039 10032 10027 10023 10020 10016 10011 10007 10002 9998 9995 9992 9990 9988 9986 9984 9981 9979 9977 9975 9974 9972 9971 9970 9968 9967 9966 9966 9965 9965 9966 9966 9966 9966 9966 9965 9966
10484 10478 10472 10465 10455 10447 10439 10431 10423 10413 10405 10398 10388 10378 10366 10353 10343 10330 10318 10313 10305 10288 10273 10269 10271 10256 10230 10211 10197 10187 10181 10168 10148 10135 10130 10128 10124 10114 10103 10092 10084 10079 10073 10064 10055 10048 10044 10040 10037 10032 10026 10021 10016 10013 10009 10005 10000 9995 9991 9988 9985 9982 9979 9977 9975 9972 9970 9968 9966 9965 9964 9963 9961 9959 9957 9956 9956 9955 9955 9955 9955 9955 9955 9954 9954 9953
10477 10468 10463 10458 10452 10446 10438 10428 10419 10408 10396 10386 10377 10367 10357 10345 10334 10321 10311 10307 10301 10285 10264 10252 10256 10254 10232 10212 10196 10181 10171 10160 10143 10130 10122 10115 10108 10103 10095 10084 10073 10066 10061 10056 10048 10039 10033 10030 10027 10023 10019 10014 10010 10005 10001 9997 9993 9989 9984 9981 9979 9977 9973 9970 9968 9965 9962 9960 9958 9956 9955 9954 9952 9950 9948 9947 9946 9945 9945 9945 9945 9945 9945 9944 9944 9942
10471 10460 10451 10445 10438 10431 10423 10412 10402 10393 10384 10374 10365 10356 10347 10337 10325 10310 10301 10297 10291 10281 10264 10242 10237 10242 10231 10210 10195 10178 10162 10149 10135 10125 10118 10109 10097 10088 10081 10074 10066 10058 10051 10047 10041 10033 10025 10020 10017 10014 10010 10006 10002 9997 9993 9989 9985 9981 9978 9975 9973 9971 9968 9964 9961 9958 9954 9952 9949 9947 9946 9945 9943 9941 9940 9939 9938 9937 9936 9936 9935 9935 9934 9934 9934 9933
10467 10457 10445 10436 10428 10419 10410 10402 10392 10382 10375 10366 10358 10350 10340 10330 10319 10303 10291 10286 10278 10272 10265 10243 10220 10217 10213 10198 10184 10171 10156 10138 10124 10115 10111 10103 10092 10080 10071 10063 10055 10047 10040 10035 10031 10025 10018 10011 10007 10004 10000 9997 9993 9989 9985 9980 9976 9973 9970 9968 9967 9965 9963 9958 9954 9951 9948 9945 9942 9940 9938 9936 9934 9932 9931 9930 9930 9929 9928 9926 9925 9924 9923 9923 9923 9923
10463 10454 10444 10433 10424 10416 10407 10399 10390 10379 10371 10362 10352 10344 10333 10324 10315 10299 10284 10277 10267 10257 10255 10245 10221 10204 10197 10186 10171 10160 10150 10134 10119 10108 10100 10093 10083 10072 10062 10053 10045 10038 10031 10025 10020 10016 10011 10005 10000 9996 9991 9987 9984 9980 9976 9973 9968 9965 9962 9960 9959 9957 9955 9952 9947 9944 9942 9939 9937 9934 9932 9929 9926 9925 9924 9923 9922 9921 9919 9917 9916 9915 9913 9913 9913 9912
10461 10452 10443 10433 10423 10415 10405 10397 10389 10378 10368 10358 10348 10337 10326 10317 10309 10295 10280 10273 10261 10243 10234 10230 10216 10197 10183 10173 10161 10151 10143 10129 10111 10098 10090 10083 10075 10065 10055 10046 10038 10032 10027 10021 10014 10009 10004 9999 9995 9990 9985 9980 9976 9971 9968 9964 9960 9957 9955 9953 9951 9949 9946 9944 9940 9937 9935 9933 9931 9929 9926 9922 9920 9918 9917 9916 9915 9913 9911 9909 9907 9906 9905 9904 9904 9903
10458 10450 10441 10432 10423 10414 10404 10394 10385 10375 10365 10355 10344 10333 10323 10312 10301 10286 10274 10269 10259 10241 10224 10213 10205 10192 10178 10166 10151 10136 10127 10116 10102 10089 10081 10074 10068 10060 10052 10043 10033 10025 10019 10015 10010 10004 9998 9993 9988 9983 9978 9974 9969 9965 9961 9956 9952 9950 9947 9945 9943 9940 9938 9936 9933 9931 9929 9927 9925 9922 9919 9916 9914 9912 9911 9909 9908 9905 9903 9901 9899 9898 9897 9896 9895 9894
10455 10446 10438 10430 10421 10412 10403 10392 10381 10371 10361 10351 10340 10330 10319 10308 10296 10278 10263 10258 10252 10242 10227 10210 10198 10187 10175 10162 10146 10126 10112 10105 10097 10086 10076 10069 10063 10057 10050 10043 10032 10021 10013 10007 10002 9998 9993 9987 9982 9976 9971 9966 9962 9958 9953 9949 9945 9942 9939 9936 9934 9932 9930 9928 9927 9925 9923 9920 9918 9915 9912 9910 9908 9906 9905 9903 9901 9898 9895 9893 9891 9890 9889 9888 9887 9886
10452 10443 10436 10428 10419 10409 10399 10389 10380 10370 10358 10347 10337 10327 10314 10301 10289 10270 10251 10241 10233 10224 10217 10204 10188 10175 10165 10155 10145 10130 10116 10104 10093 10082 10070 10061 10054 10046 10039 10035 10028 10018 10010 10003 9997 9992 9987 9982 9977 9971 9966 9961 9956 9951 9947 9943 9939 9935 9932 9929 9926 9924 9922 9921 9919 9917 9915 9913 9910 9907 9905 9903 9901 9899 9897 9895 9893 9891 9888 9886 9884 9883 9882 9881 9880 9879
10449 10441 10433 10426 10417 10408 10397 10386 10375 10364 10354 10344 10333 10321 10308 10296 10287 10271 10251 10238 10225 10208 10197 10189 10179 10171 10162 10152 10144 10136 10122 10105 10091 10078 10064 10052 10045 10036 10029 10025 10021 10014 10006 10001 9995 9989 9983 9977 9972 9967 9962 9956 9951 9946 9941 9937 9933 9929 9925 9922 9919 9917 9915 9913 9912 9909 9906 9904 9902 9899 9897 9895 9893 9891 9888 9886 9884 9882 9881 9879 9877 9875 9874 9873 9872 9871
10445 10437 10428 10420 10411 10404 10395 10385 10374 10362 10351 10339 10325 10312 10301 10291 10283 10268 10246 10233 10226 10212 10198 10188 10179 10170 10160 10146 10134 10125 10112 10096 10085 10077 10066 10053 10043 10036 10027 10021 10017 10011 10003 9996 9990 9986 9980 9974 9967 9962 9957 9952 9946 9941 9936 9932 9928 9924 9920 9917 9913 9910 9908 9906 9904 9902 9898 9895 9893 9891 9889 9887 9884 9882 9879 9877 9875 9873 9872 9871 9869 9867 9866 9865 9864 9863
10441 10432 10424 10415 10405 10396 10388 10379 10369 10356 10342 10328 10316 10306 10295 10284 10276 10267 10248 10229 10218 10209 10200 10190 10176 10160 10147 10134 10120 10111 10102 10088 10077 10072 10067 10057 10047 10037 10027 10019 10013 10007 10000 9992 9984 9979 9974 9968 9962 9956 9950 9945 9940 9934 9930 9925 9922 9918 9915 9912 9908 9905 9902 9900 9897 9894 9891 9888 9886 9885 9882 9880 9877 9875 9871 9869 9866 9865 9863 9862 9861 9860 9859 9858 9856 9855
10437 10427 10418 10409 10400 10390 10379 10367 10355 10344 10333 10323 10313 10302 10291 10279 10269 10261 10247 10226 10208 10195 10186 10177 10163 10147 10135 10126 10115 10107 10103 10091 10074 10064 10058 10051 10043 10035 10025 10016 10009 10002 9995 9988 9981 9974 9968 9963 9957 9950 9944 9939 9933 9928 9923 9919 9915 9911 9908 9906 9903 9900 9897 9894 9891 9887 9884 9882 9880 9879 9877 9874 9872 9869 9866 9863 9860 9858 9856 9855 9854 9853 9851 9850 9849 9848
10433 10423 10413 10403 10393 10382 10372 10362 10352 10341 10329 10317 10304 10290 10278 10266 10253 10241 10229 10214 10199 10186 10175 10165 10157 10148 10138 10129 10117 10106 10101 10093 10078 10064 10054 10043 10034 10027 10018 10009 10001 9994 9988 9981 9974 9969 9964 9959 9954 9948 9941 9935 9930 9924 9918 9914 9910 9906 9903 9900 9897 9894 9891 9888 9885 9882 9878 9876 9874 9873 9871 9869 9866 9863 9860 9857 9855 9852 9850 9848 9847 9846 9844 9843 9842 9841
10430 10420 10409 10398 10387 10376 10365 10356 10347 10337 10324 10309 10295 10281 10266 10254 10242 10230 10221 10210 10197 10184 10173 10164 10157 10150 10138 10127 10114 10099 10089 10083 10072 10059 10048 10036 10025 10017 10010 10002 9993 9985 9980 9974 9968 9961 9956 9952 9949 9944 9938 9932 9925 9919 9914 9910 9906 9902 9898 9895 9892 9889 9886 9883 9880 9876 9873 9870 9868 9867 9865 9863 9860 9858 9855 9852 9850 9847 9845 9843 9842 9840 9838 9837 9835 9835
10427 10417 10406 10394 10384 10372 10360 10348 10336 10325 10314 10302 10289 10277 10262 10247 10235 10224 10218 10212 10201 10185 10171 10162 10153 10141 10127 10114 10102 10086 10072 10065 10057 10046 10035 10025 10013 10004 9998 9992 9986 9978 9970 9965 9960 9955 9951 9946 9942 9937 9933 9927 9921 9915 9910 9906 9903 9899 9895 9891 9888 9885 9882 9878 9875 9871 9868 9866 9864 9861 9859 9857 9855 9852 9850 9848 9845 9843 9841 9839 9837 9835 9833 9832 9830 9830
10425 10414 10403 10392 10381 10369 10356 10345 10332 10318 10306 10294 10282 10271 10260 10245 10231 10219 10208 10202 10193 10179 10162 10148 10137 10127 10114 10100 10089 10076 10059 10047 10039 10031 10022 10013 10004 9996 9989 9984 9979 9974 9967 9960 9953 9948 9944 9940 9936 9931 9927 9922 9916 9911 9905 9901 9898 9895 9891 9887 9883 9880 9877 9874 9871 9867 9864 9861 9860 9857 9855 9852 9850 9847 9845 9843 9841 9839 9837 9835 9833 9831 9829 9827 9826 9825
10423 10412 10401 10389 10378 10366 10353 10340 10329 10316 10304 10291 10275 10260 10250 10242 10232 10218 10199 10183 10173 10164 10151 10134 10122 10114 10104 10090 10078 10068 10055 10041 10031 10024 10016 10007 10000 9993 9987 9979 9972 9967 9963 9957 9950 9944 9937 9933 9930 9926 9921 9917 9912 9907 9901 9896 9893 9891 9887 9883 9879 9876 9874 9871 9867 9863 9860 9858 9856 9853 9850 9848 9845 9843 9841 9839 9837 9835 9833 9830 9828 9827 9825 9824 9822 9821
10419 10408 10397 10385 10373 10361 10348 10336 10326 10314 10300 10288 10274 10258 10244 10234 10222 10208 10191 10174 10161 10150 10140 10127 10114 10104 10097 10086 10073 10062 10052 10041 10031 10022 10014 10004 9995 9989 9984 9978 9971 9963 9956 9950 9945 9940 9935 9929 9925 9921 9917 9912 9908 9903 9897 9892 9888 9886 9882 9879 9875 9872 9869 9867 9863 9859 9857 9854 9852 9849 9846 9844 9841 9839 9836 9834 9832 9831 9829 9826 9825 9823 9821 9820 9818 9817
10415 10404 10393 10381 10367 10354 10340 10325 10312 10301 10287 10275 10264 10252 10236 10221 10206 10193 10182 10169 10155 10142 10132 10122 10110 10098 10089 10079 10067 10056 10048 10039 10028 10020 10013 10003 9994 9986 9979 9974 9968 9961 9955 9949 9943 9937 9932 9927 9922 9918 9914 9909 9904 9899 9894 9888 9884 9881 9877 9874 9871 9868 9865 9862 9859 9855 9853 9851 9848 9845 9843 9840 9837 9835 9833 9830 9828 9826 9824 9823 9821 9819 9818 9816 9815 9814
10411 10399 10387 10375 10361 10348 10335 10318 10302 10292 10283 10271 10259 10246 10231 10216 10203 10190 10177 10163 10149 10135 10124 10114 10104 10093 10082 10072 10061 10051 10044 10036 10026 10016 10008 9999 9990 9983 9976 9970 9964 9958 9952 9947 9941 9935 9929 9924 9918 9914 9910 9905 9900 9896 9891 9886 9881 9877 9873 9869 9866 9864 9861 9858 9855 9851 9849 9847 9844 9841 9838 9836 9834 9832 9829 9827 9825 9823 9820 9819 9817 9816 9814 9813 9812 9811
10408 10395 10383 10372 10360 10346 10334 10321 10307 10293 10282 10271 10258 10246 10233 10220 10208 10194 10178 10162 10146 10131 10117 10107 10098 10089 10079 10070 10060 10049 10039 10032 10024 10014 10005 9996 9987 9979 9972 9966 9961 9956 9950 9944 9939 9933 9928 9922 9916 9911 9906 9901 9897 9893 9889 9884 9879 9874 9870 9866 9863 9860 9857 9854 9851 9848 9846 9843 9840 9837 9835 9832 9831 9829 9826 9824 9822 9820 9817 9816 9814 9813 9812 9810 9809 9808
10406 10394 10381 10370 10360 10348 10335 10324 10310 10295 10282 10269 10255 10242 10229 10216 10204 10191 10179 10165 10150 10134 10118 10104 10094 10085 10076 10068 10060 10049 10038 10030 10023 10016 10008 9998 9987 9978 9970 9963 9957 9952 9946 9940 9934 9929 9924 9918 9913 9908 9902 9898 9893 9889 9885 9881 9876 9871 9866 9863 9860 9856 9852 9849 9847 9845 9843 9840 9837 9834 9831 9829 9828 9826 9823 9821 9819 9817 9815 9814 9812 9811 9809 9808 9807 9805
10403 10392 10380 10367 10356 10346 10334 10322 10309 10295 10284 10274 10262 10250 10238 10223 10207 10192 10178 10166 10154 10140 10123 10105 10092 10084 10077 10070 10061 10051 10039 10028 10020 10014 10007 9998 9987 9977 9969 9962 9955 9949 9943 9938 9932 9927 9921 9915 9909 9904 9899 9894 9889 9885 9881 9877 9872 9867 9863 9859 9856 9852 9848 9845 9843 9841 9839 9836 9833 9831 9829 9827 9825 9823 9820 9818 9816 9815 9813 9811 9810 9809 9807 9806 9805 9803
10400 10389 10378 10366 10353 10341 10331 10320 10308 10293 10278 10266 10257 10247 10235 10222 10208 10194 10179 10166 10155 10144 10130 10114 10097 10084 10075 10068 10060 10049 10036 10026 10016 10008 10002 9996 9987 9977 9968 9960 9954 9948 9941 9934 9929 9924 9919 9913 9907 9902 9897 9891 9886 9881 9877 9873 9868 9863 9859 9856 9852 9848 9844 9841 9839 9837 9835 9832 9830 9828 9826 9824 9822 9820 9818 9815 9813 9812 9811 9809 9808 9807 9806 9805 9803 9802
10397 10386 10375 10363 10351 10339 10328 10318 10308 10296 10280 10266 10254 10241 10227 10215 10202 10190 10177 10163 10150 10139 10128 10115 10100 10084 10068 10058 10052 10043 10032 10022 10012 10004 9997 9991 9984 9976 9967 9958 9951 9946 9940 9932 9926 9922 9917 9910 9905 9900 9894 9888 9883 9878 9873 9869 9865 9860 9856 9852 9849 9845 9842 9839 9836 9834 9831 9829 9827 9825 9823 9822 9820 9818 9816 9813 9811 9809 9808 9807 9806 9805 9805 9803 9802 9800
10393 10382 10371 10360 10348 10335 10322 10310 10299 10288 10276 10262 10248 10235 10222 10209 10195 10181 10167 10154 10139 10124 10113 10103 10094 10082 10068 10053 10043 10036 10027 10017 10008 10001 9993 9986 9979 9973 9966 9957 9948 9941 9935 9928 9922 9917 9913 9907 9901 9896 9891 9884 9878 9874 9869 9865 9861 9856 9852 9849 9846 9842 9839 9836 9833 9831 9829 9826 9824 9823 9821 9819 9818 9816 9813 9811 9809 9808 9807 9806 9805 9804 9803 9802 9801 9799
10388 10377 10367 10356 10343 10330 10317 10303 10290 10278 10266 10252 10238 10226 10214 10202 10189 10174 10158 10143 10127 10113 10101 10091 10083 10076 10066 10052 10038 10029 10023 10013 10004 9997 9990 9983 9974 9967 9960 9953 9946 9938 9931 9924 9918 9913 9908 9903 9897 9891 9886 9880 9874 9870 9866 9862 9857 9852 9849 9845 9842 9839 9836 9833 9831 9828 9826 9824 9822 9820 9819 9817 9815 9813 9811 9809 9808 9807 9806 9805 9804 9803 9802 9801 9800 9799